Location: Moscow
(55.7500°N, 37.5830°E)
Time: 00:03:41
(UTC+03:00)

COSMOS 2251 DEB - Pass Details

Date: 07 July 2022
Orbit: 738 x 847 km, 74.1° (Epoch: 17 August)

Event Time Altitude Azimuth Distance (km) Brightness Sun altitude
Rises 01:16:54 0° 328° (NNW) 3,260 ? -11.1°
Reaches altitude 10° 01:20:11 10° 349° (N) 2,309 ? -11.0°
Maximum altitude 01:23:32 17° 29° (NNE) 1,852 ? -10.9°
Drops below altitude 10° 01:26:52 10° 70° (ENE) 2,271 ? -10.8°
Sets 01:30:02 0° 91° (E) 3,182 ? -10.8°
